Home   Weather   Brussels   Past weeks
Flag for Belgium

Past Weather in Brussels, Belgium — Yesterday and Last 2 Weeks

Now
73 °F

Passing clouds.


Feels Like: 77 °F
Forecast: 81 / 59 °F
Wind: 8 mph from Southwest

Location: Brussels National Airport

Current Time: Jul 21, 2019 at 3:18:41 pm

Latest Report: Jul 21, 2019 at 2:20 pm


Visibility: N/A

Pressure: 30.18 "Hg

Humidity: 50%

Dew Point: 54 °F

Location of BrusselsLocation

Past Weather in Brussels — Graph

°F

Brussels Temperature Yesterday

Maximum temperature yesterday: 81 °F (at 1:20 pm)
Minimum temperature yesterday: 64 °F (at 3:50 am)
Average temperature yesterday: 70 °F

High & Low Weather Summary for the Past Weeks

 TemperatureHumidityPressure
High81 °F (Jul 20, 1:20 pm)100% (Jul 17, 3:50 am)30.18 "Hg (Jul 17, 3:50 am)
Low45 °F (Jul 9, 4:50 am)38% (Jul 10, 12:50 pm)29.80 "Hg (Jul 20, 6:20 am)
Average63 °F71%30.03 "Hg
* Reported Jul 6 1:20 pm — Jul 21 1:50 pm, Brussels. Weather by CustomWeather, © 2019

Note: Actual official high and low records may vary slightly from our data, if they occured in-between our weather recording intervals... More about our weather records

Advertising

Brussels Weather History for the Previous 24 Hours

Scroll right to see more
 ConditionsComfort  
Time TempWeatherWind HumidityBarometerVisibility
1:50 pm
Sun, Jul 21
73 °FPassing clouds.9 mph47%30.18 "HgN/A
1:20 pm72 °FPassing clouds.8 mph53%30.18 "HgN/A
12:50 pm70 °FScattered clouds.8 mph57%30.18 "HgN/A
12:20 pm70 °FScattered clouds.7 mph60%30.18 "HgN/A
11:50 am70 °FScattered clouds.8 mph60%30.15 "HgN/A
11:20 am70 °FScattered clouds.8 mph64%30.15 "HgN/A
10:50 am68 °FPassing clouds.7 mph73%30.15 "HgN/A
10:20 am68 °FScattered clouds.6 mph73%30.15 "HgN/A
9:50 am66 °FPassing clouds.6 mph78%30.15 "HgN/A
9:20 am64 °FPassing clouds.7 mph78%30.12 "HgN/A
8:50 am63 °FPassing clouds.7 mph83%30.12 "HgN/A
8:20 am63 °FPassing clouds.7 mph83%30.12 "HgN/A
7:50 am61 °FPassing clouds.7 mph88%30.09 "HgN/A
7:20 am59 °FScattered clouds.6 mph94%30.09 "HgN/A
6:50 am59 °FScattered clouds.6 mph88%30.09 "HgN/A
6:20 am59 °FScattered clouds.7 mph88%30.07 "HgN/A
5:50 am59 °FPassing clouds.8 mph88%30.07 "HgN/A
5:20 am59 °FPassing clouds.8 mph88%30.07 "HgN/A
4:50 am59 °FClear.9 mph88%30.04 "Hg10 mi
4:20 am59 °FClear.8 mph88%30.04 "Hg10 mi
3:50 am61 °FClear.9 mph83%30.04 "Hg10 mi
3:20 am61 °FClear.12 mph83%30.04 "Hg10 mi
2:50 am63 °FClear.12 mph77%30.01 "Hg10 mi
2:20 am63 °FClear.9 mph77%30.01 "Hg10 mi
1:50 am63 °FClear.12 mph77%30.01 "Hg10 mi
1:20 am63 °FClear.9 mph77%30.01 "Hg10 mi
12:50 am64 °FClear.10 mph73%30.01 "Hg10 mi
12:20 am64 °FClear.10 mph73%29.98 "Hg10 mi
11:50 pm
Sat, Jul 20
66 °FClear.9 mph68%29.98 "Hg10 mi
11:20 pm66 °FClear.10 mph68%29.98 "Hg10 mi
10:50 pm66 °FPassing clouds.9 mph68%29.98 "HgN/A
10:20 pm68 °FClear.8 mph64%29.95 "Hg10 mi
9:50 pm70 °FClear.14 mph60%29.95 "Hg10 mi
9:20 pm70 °FPassing clouds.12 mph60%29.92 "HgN/A
8:50 pm72 °FSunny.14 mph57%29.92 "Hg10 mi
8:20 pm72 °FSunny.15 mph53%29.92 "Hg10 mi
7:50 pm73 °FSunny.20 mph50%29.89 "Hg10 mi
7:20 pm75 °FPassing clouds.17 mph54%29.89 "HgN/A
6:50 pm75 °FPassing clouds.9 mph65%29.89 "HgN/A
6:20 pm75 °FPassing clouds.12 mph69%29.86 "HgN/A
5:50 pm73 °FScattered showers. Scattered clouds.9 mph74%29.86 "HgN/A
5:20 pm73 °FPassing clouds.9 mph74%29.86 "HgN/A
4:50 pm73 °FPassing clouds.8 mph74%29.86 "HgN/A
4:20 pm73 °FPassing clouds.7 mph74%29.86 "HgN/A
3:20 pm64 °FThunderstorms. Passing clouds.7 mph88%29.83 "HgN/A
Weather by CustomWeather, © 2019

See weather overview